Theta_e
308 308 307 307 308 308 309 310 311 312 312 312 312 313 309 307 307 310 310 313 315 319 318 322 324 334 331 342 347 346 351 355 353 351 355 350 353 348 348 350 348 346 344 342 343
307 307 307 307 307 308 308 309 310 313 314 314 312 314 309 308 313 315 312 315 318 318 316 316 319 323 321 343 349 352 352 354 352 348 351 350 351 351 349 350 350 346 341 342 346
306 306 307 307 307 307 307 308 309 314 315 314 313 314 309 312 323 320 319 314 319 318 316 315 318 321 323 345 346 352 355 354 349 346 349 351 352 348 347 352 348 347 343 344 345
307 307 307 307 307 307 307 308 308 315 316 314 314 313 310 319 327 329 323 316 319 320 316 316 322 323 323 344 350 354 349 350 349 348 351 353 350 352 348 348 345 344 341 344 344
310 309 308 308 307 307 308 308 309 317 316 315 314 312 320 325 326 329 327 316 318 319 316 320 324 322 319 342 349 349 349 347 349 350 349 346 352 353 352 348 346 344 343 344 343
311 310 311 311 310 309 308 308 311 318 318 314 312 321 324 326 328 328 326 319 319 317 315 320 321 319 346 344 346 344 353 349 350 347 346 348 350 351 351 349 347 346 346 344 343
312 311 311 311 311 310 310 309 311 315 319 315 315 322 325 323 327 327 319 317 315 314 316 318 319 321 343 346 342 346 350 351 351 350 351 350 354 354 350 348 348 347 345 344 342
315 315 314 313 313 311 310 310 313 315 318 316 317 324 326 329 327 326 320 317 313 314 317 318 317 329 345 343 345 344 345 347 348 351 349 345 353 351 348 350 350 347 344 343 342
315 316 316 316 313 312 310 312 320 317 318 320 325 324 320 325 325 324 324 321 319 316 317 316 315 338 341 345 344 344 343 349 350 348 349 344 346 348 349 350 352 347 345 343 343
314 316 317 317 316 313 310 318 321 321 322 324 324 322 321 325 321 319 322 322 318 314 313 313 310 315 321 341 346 346 349 351 352 354 350 348 345 347 348 350 349 348 344 344 344
314 314 316 317 317 313 312 318 315 316 326 322 321 323 323 325 321 320 321 317 314 312 313 311 312 316 319 333 324 343 349 351 351 354 351 350 346 346 344 349 349 347 344 343 343
314 313 315 317 318 312 316 317 317 317 317 319 323 322 324 320 319 318 320 319 316 314 314 312 313 313 317 319 321 326 346 348 348 354 349 350 349 345 344 345 348 348 343 343 342
314 313 314 316 317 313 311 316 320 313 319 320 322 324 324 323 320 318 318 318 315 313 313 313 315 313 316 317 342 342 342 347 346 352 350 349 346 347 345 343 347 347 345 343 344
315 315 314 315 313 316 312 315 312 315 319 323 325 324 318 318 321 318 318 316 316 315 312 313 314 315 314 316 333 342 341 345 353 344 342 347 347 347 345 344 347 348 346 344 343
316 316 314 313 316 314 313 311 317 317 326 325 325 321 318 320 320 319 317 318 320 319 318 320 320 316 317 317 336 337 344 343 346 341 344 351 348 342 345 347 345 344 345 344 344
316 317 315 314 315 318 314 313 318 321 328 327 323 321 321 320 319 318 319 318 318 319 318 318 318 321 321 329 335 333 334 334 331 339 342 340 349 344 347 346 344 342 340 341 345
317 317 314 312 317 315 315 316 317 324 323 325 322 320 320 320 319 319 319 318 317 319 319 319 321 319 319 319 319 327 324 332 339 344 343 333 349 342 339 345 344 344 341 339 341
317 317 314 314 317 318 316 316 321 322 324 323 320 320 321 318 319 318 317 317 316 316 316 323 324 321 319 319 321 329 318 320 326 333 333 335 343 336 342 342 342 340 341 341 341
318 316 316 318 316 311 313 318 315 316 323 322 318 321 321 321 319 318 317 316 316 314 318 322 323 322 323 318 317 318 320 317 327 332 334 334 336 335 345 345 342 343 341 342 341
315 314 315 315 315 313 315 318 317 319 322 321 320 319 319 319 319 317 317 318 320 315 319 320 325 322 323 320 320 321 320 328 325 337 340 336 339 340 343 342 346 340 342 340 340
312 309 313 314 312 311 318 316 318 319 320 322 321 322 317 320 318 318 320 324 322 320 320 318 320 323 322 322 323 322 328 326 326 327 332 334 331 331 337 339 340 341 341 340 340
309 312 312 313 308 307 313 315 317 320 319 318 320 319 318 318 322 323 323 323 320 320 323 320 315 320 324 319 316 320 326 325 326 333 329 328 330 329 339 338 341 342 341 340 339
310 310 317 315 313 313 313 317 317 318 318 319 321 318 318 320 323 324 324 322 321 321 320 320 317 318 319 318 318 319 323 321 321 326 335 332 329 333 336 338 338 341 341 337 337
310 312 316 314 312 317 321 322 321 320 319 319 319 318 318 318 316 323 324 323 322 326 331 319 312 316 317 319 318 321 320 328 322 329 329 329 328 330 337 337 337 342 339 331 335
310 313 317 323 322 322 321 320 323 324 322 320 320 318 318 318 319 321 322 322 320 327 313 312 314 314 314 316 319 320 320 320 322 319 324 321 328 326 334 335 334 338 337 332 335
311 318 315 315 317 320 318 321 324 324 323 322 321 321 316 316 318 321 320 320 319 321 316 310 311 318 322 321 319 322 326 323 327 324 327 330 327 326 333 334 334 340 336 335 340
313 313 317 315 318 319 318 324 325 322 322 321 322 323 321 318 316 315 316 317 317 317 316 315 316 317 321 318 319 321 327 327 334 336 333 334 330 340 337 336 336 335 333 332 342
Wind_Speed
14 14 15 15 15 15 17 17 16 15 13 11 8 8 8 9 8 3 4 3 8 8 5 8 5 4 2 2 1 2 3 3 4 5 6 7 2 5 7 8 1 2 5 10 22
14 15 15 15 15 16 17 17 18 17 13 9 7 6 8 9 6 6 3 11 8 9 5 4 4 4 3 1 1 3 2 1 2 6 7 7 8 5 3 7 3 8 15 23 18
15 16 16 15 15 17 17 18 19 17 10 6 4 5 6 7 2 4 5 13 12 8 3 2 3 3 3 1 1 1 2 3 7 12 14 10 3 2 1 3 4 8 13 15 14
17 16 16 16 16 17 18 18 19 14 9 5 3 4 5 2 3 1 4 14 13 7 4 3 2 2 1 2 1 2 2 4 7 8 6 7 3 4 5 1 7 12 16 15 10
18 17 17 17 17 18 18 17 17 11 7 4 3 4 2 1 5 2 3 14 13 9 8 5 4 2 1 2 4 3 5 6 7 6 8 5 3 4 3 3 13 16 14 11 9
18 18 18 19 19 19 18 17 14 8 5 2 2 3 2 1 3 1 3 12 12 12 6 5 3 3 4 2 2 3 6 10 6 8 5 7 4 1 5 3 14 14 12 9 8
21 21 21 22 22 20 20 17 14 7 3 1 2 3 1 4 2 2 5 6 10 11 4 5 3 3 5 4 3 7 5 5 3 7 5 6 2 4 7 10 14 11 10 9 9
23 23 23 23 24 23 21 19 17 6 3 1 1 2 5 1 5 5 7 4 6 8 3 4 1 5 3 3 3 3 4 3 2 3 1 4 2 3 3 5 12 12 10 9 8
25 25 25 25 23 26 22 19 8 4 5 3 1 2 7 4 3 5 10 3 6 6 3 4 3 4 4 4 4 5 1 3 2 3 3 2 2 4 7 7 10 10 10 8 9
27 27 27 26 27 24 18 6 7 5 4 2 0 2 3 1 2 2 4 5 2 3 3 6 5 4 3 3 3 4 2 2 4 4 2 3 1 3 1 9 7 9 10 11 11
29 29 29 28 30 21 10 2 4 3 2 5 4 3 4 2 2 3 3 6 3 8 2 4 4 5 10 6 2 4 3 2 2 6 3 5 5 7 6 4 5 3 8 9 14
30 31 30 28 29 12 5 4 6 1 7 7 5 5 7 2 2 2 6 3 3 2 2 6 4 8 3 4 2 2 1 3 1 4 2 2 4 4 7 3 5 4 6 11 4
30 32 32 29 19 4 7 3 3 8 1 6 5 4 4 8 5 7 7 3 4 4 5 6 4 6 7 4 5 3 4 3 0 4 1 0 1 5 6 5 9 6 6 4 11
32 34 33 29 4 15 6 1 18 7 4 6 3 3 4 5 2 5 9 5 1 7 6 5 4 6 5 5 6 2 7 6 6 3 0 3 3 2 4 5 12 16 11 8 8
32 36 31 24 13 4 2 14 7 2 2 2 3 2 2 6 3 3 5 2 4 5 4 7 4 5 3 6 7 4 8 6 3 4 1 1 3 4 1 5 10 12 16 12 10
35 36 31 11 11 10 9 11 3 5 4 2 4 3 4 2 2 4 3 2 1 3 1 6 3 4 7 5 6 10 8 8 5 3 4 3 2 4 3 5 4 13 16 17 14
38 35 29 14 4 3 9 3 5 3 4 1 4 3 4 4 3 4 4 2 3 2 4 5 1 4 4 7 4 6 6 4 3 3 5 4 2 7 5 5 7 8 14 14 14
39 35 19 16 5 9 1 5 3 4 5 3 2 2 5 7 3 2 5 2 3 4 3 3 6 1 1 6 8 7 7 6 5 4 3 4 4 5 5 4 8 8 10 14 15
37 21 12 5 7 8 5 3 7 6 2 4 3 3 3 4 4 4 7 5 6 8 6 4 4 3 2 3 7 5 3 4 7 3 2 2 6 5 3 5 5 7 2 8 12
29 11 7 12 6 6 4 6 5 4 3 2 1 1 5 3 6 7 6 4 5 9 2 5 2 3 4 3 6 4 5 3 3 3 2 4 5 4 5 8 5 4 7 7 8
9 4 13 6 8 4 4 7 6 6 4 1 2 2 5 4 8 6 7 3 3 4 5 4 3 5 3 4 1 3 2 7 5 3 5 1 6 6 4 4 5 4 5 6 6
6 3 4 4 3 1 3 5 5 4 1 2 2 6 3 2 1 4 8 5 6 7 5 1 5 2 1 4 2 1 3 5 5 4 1 3 5 2 6 6 5 6 4 4 5
3 3 2 2 1 2 4 3 3 4 5 3 3 5 4 2 1 4 5 1 6 5 8 6 2 3 6 6 5 4 3 4 5 3 5 5 5 1 3 4 4 5 5 5 6
2 3 3 3 1 1 4 3 3 3 4 4 5 3 1 3 4 5 3 2 2 4 9 8 3 5 7 6 3 0 2 3 4 3 5 5 4 5 6 6 6 5 4 1 4
0 2 2 3 2 2 1 3 1 3 4 2 2 6 5 4 3 4 2 2 6 4 4 5 4 3 4 4 2 3 2 3 5 5 6 4 7 6 8 8 5 4 3 4 5
1 1 3 2 3 3 1 1 0 2 2 4 4 4 6 6 7 9 7 3 6 1 3 3 2 3 4 2 4 1 3 4 3 2 6 3 6 6 4 2 5 6 4 2 3
1 1 1 3 3 1 3 1 2 3 5 7 2 5 5 9 9 9 4 9 10 9 4 4 6 3 4 2 3 4 4 3 2 1 2 4 4 2 2 5 4 1 4 5 4
Wind_Direction
5 3 1 1 358 358 354 350 343 336 330 329 330 329 321 319 320 282 237 156 184 147 118 124 125 150 45 51 108 126 85 155 191 143 127 137 191 237 299 143 132 354 109 137 148
3 359 356 356 355 356 352 348 345 336 327 318 318 322 321 328 320 249 171 165 150 171 126 145 170 140 42 55 32 57 64 32 156 127 132 134 209 216 182 155 75 76 85 118 133
359 356 352 353 354 353 351 348 347 344 341 327 320 314 324 339 317 253 169 164 156 147 127 138 133 97 64 113 334 91 76 49 73 117 138 156 200 230 132 193 194 157 136 136 144
356 354 353 351 352 350 350 347 349 347 350 351 333 328 338 7 112 155 117 170 162 163 149 141 68 66 101 148 170 81 27 122 125 129 123 137 323 261 173 241 134 136 145 148 163
360 358 355 352 350 347 346 345 350 352 5 12 5 355 26 301 255 262 174 180 170 175 189 169 156 188 81 180 115 78 94 100 116 133 109 94 357 55 186 145 121 127 148 163 172
2 0 359 357 352 347 345 341 346 345 358 19 49 26 4 26 326 266 173 153 177 181 188 187 176 155 92 80 146 142 108 123 143 127 134 123 266 169 262 241 127 146 157 178 186
9 4 359 355 350 345 341 335 330 316 291 238 114 28 16 235 352 189 149 170 182 181 164 209 163 149 141 106 79 90 85 85 136 152 155 171 218 118 156 167 147 160 163 186 202
6 2 357 354 347 342 343 336 323 271 212 181 111 36 246 205 299 200 186 148 178 202 246 310 227 96 76 104 57 111 95 139 219 197 48 174 169 195 176 166 182 161 174 193 209
1 358 354 351 347 343 346 341 1 143 145 138 68 38 287 305 216 245 213 174 170 214 260 283 76 81 41 78 17 16 173 99 167 248 135 133 189 192 180 202 189 163 186 196 225
358 354 352 349 344 343 343 22 55 97 115 29 302 8 279 301 201 234 211 207 135 116 61 44 51 80 47 97 201 228 245 186 160 191 148 130 175 145 190 174 186 185 192 194 210
356 352 350 348 341 339 343 69 3 360 153 212 218 251 288 247 149 211 161 123 86 53 106 5 88 189 213 189 160 136 188 218 149 176 132 200 164 196 151 156 151 213 192 192 212
354 351 348 346 339 347 31 85 125 107 307 234 255 263 262 194 110 279 155 99 84 126 84 22 254 222 171 192 256 287 167 194 45 149 61 147 227 199 173 175 183 190 202 200 213
352 349 346 344 338 27 336 143 188 325 188 299 197 190 196 150 194 191 135 139 130 138 176 165 236 144 150 175 170 207 200 142 102 123 195 142 289 147 226 161 182 197 239 245 200
349 347 344 344 5 334 304 184 330 171 51 281 284 272 116 126 226 192 166 136 155 193 161 230 259 182 173 194 161 206 206 116 121 89 69 50 293 191 229 190 198 191 207 214 199
345 343 340 337 303 290 279 326 345 118 13 209 217 152 23 135 151 224 178 84 205 181 120 254 160 139 149 220 155 232 104 114 122 93 116 342 65 272 126 187 214 211 203 202 201
340 338 333 326 301 284 297 325 113 42 256 314 163 161 114 345 292 121 155 106 184 166 247 247 276 177 188 52 110 120 81 47 54 46 6 322 113 278 219 208 206 208 212 204 193
335 333 319 289 244 305 323 41 38 155 308 285 219 167 163 203 230 143 156 209 181 84 351 330 285 310 113 78 54 78 60 27 17 13 225 344 38 247 248 260 233 250 217 206 190
334 330 314 278 244 246 240 59 195 239 241 307 28 105 183 158 239 126 126 255 229 101 97 98 331 21 138 161 178 172 157 150 180 188 244 30 235 262 213 277 300 277 206 194 197
334 328 308 309 217 176 85 114 208 210 243 342 359 160 234 237 164 153 182 197 228 174 156 139 272 298 345 129 125 198 178 168 103 2 69 240 294 301 252 280 342 346 108 206 207
330 324 306 311 182 155 89 216 219 219 320 67 116 184 189 239 164 152 171 211 214 198 130 191 54 39 311 87 41 123 140 80 14 128 238 298 283 242 250 260 235 257 237 219 203
335 353 350 113 131 52 173 217 233 239 238 95 182 337 246 228 171 177 197 264 197 101 81 128 99 299 28 26 199 54 60 55 108 100 150 189 273 212 191 176 216 272 297 294 259
355 341 60 9 61 39 176 199 221 247 103 280 160 215 227 292 184 179 190 233 143 141 136 139 125 124 172 318 286 173 135 135 122 210 100 139 274 204 169 177 184 212 256 299 301
343 269 343 252 146 281 292 269 241 208 230 191 244 219 216 249 189 181 167 70 146 124 163 188 34 50 1 353 349 53 78 99 103 95 185 138 261 73 168 216 247 223 236 303 325
352 334 320 42 51 106 11 271 264 297 259 216 229 146 249 270 188 208 136 89 108 107 83 87 96 148 189 208 166 255 47 155 104 119 167 220 265 277 237 211 189 204 198 299 315
122 272 187 318 334 349 295 301 314 342 329 308 270 212 166 258 148 200 122 76 31 133 65 103 133 155 194 217 216 183 232 196 187 188 159 243 210 262 246 227 194 174 177 32 345
242 336 347 274 304 323 151 200 119 338 233 269 224 311 181 196 192 196 144 164 182 215 80 28 154 148 183 265 263 259 148 217 230 128 289 211 258 222 304 312 30 96 146 220 323
248 273 151 282 318 350 238 55 310 341 259 246 310 349 258 234 217 211 250 167 165 144 133 113 134 113 220 5 8 343 245 191 161 175 180 185 250 49 341 315 332 161 198 181 163